Find Starlink 36983

NORAD ID: 68323 Int'l Des: 2026-059 Owner: SPXS Country: US Constellation: starlink operational
LEOCIRCULAR

Current View

Loading 3D Globe...

About Starlink 36983

Starlink 36983 (NORAD 68323) is a starlink constellation satellite (v2 mini) launched Mar 22, 2026 by SPXS of US. It operates in LEO, CIRCULAR orbit with a mass of 575.00 kg.

About Starlink 36983

Description loading...

Upcoming Passes

Passes for default location (London). Set your location on the main map for personalized predictions.

Altitude History

Loading altitude history...

Two-Line Element Set

1 68323U 26059C 26173.50085483 .00011130 00000-0 34002-3 0 9994
2 68323 53.1573 216.3805 0000814 91.3777 268.7318 15.34402662 14283
Epoch: Jun 22, 2026 • Age: 20 hours

Current Status

Altitude 462.7 km
Velocity 7.64 km/s
Sub-Earth Point 17.03°N, 172.46°W
Launch Date Mar 22, 2026
Age 0.2 years
Type internet

Technical Details

Classification Payload
Mass 575.00 kg
Dry Mass 530.00 kg
Total Mass 575.00 kg
Length 0.30 m
Diameter 4.10 m
Span 29.00 m
Shape Box + pan
Manufacturer SPXS
Bus Type Starlink V2MO
Phase Status In Orbit
Owner/State SPXS/US

Most Searched